Location: Saratoga Springs
(43.0831°N, 73.7850°W)
Time: 01:46:04
(UTC-04:00)

Vanguard 3 - Pass Details

Date: 30 April 2024
Orbit: 509 x 3232 km, 33.3° (Epoch: 26 May)

Event Time Altitude Azimuth Distance (km) Brightness Sun altitude
Exits shadow 01:25:07 44° 171° (S) 3,891 10.0 -31.5°
Maximum altitude 01:27:11 45° 157° (SSE) 3,786 10.0 -31.4°
Drops below altitude 10° 01:41:37 10° 92° (E) 5,017 11.3 -30.9°
Sets 01:45:08 0° 86° (E) 5,705 11.7 -30.7°
